Theta_e
329 329 328 330 332 331 330 330 326 325 327 326 327 331 334 335 325 324 343 349 335 330 334 335 337 342 343 343 339 338 338 337 336 337 337 338 338 338 339 338 338 337 337 334 331 330 329 330 329 325 322 323 325 326 326 324 322 320 320 320 320 319 320 320 321 321 323 322 322 323 323 323 322 322 322 323 323 324 325 326 326 327 327 326 325 325 325
326 326 328 329 330 329 328 328 328 327 327 326 328 332 333 331 329 331 338 340 336 333 332 333 334 333 331 331 331 333 336 336 335 336 337 338 337 338 338 338 338 338 337 335 332 330 329 329 327 323 322 324 326 327 326 324 321 320 320 320 320 320 320 321 321 322 323 323 323 324 324 322 321 322 322 323 323 323 325 326 326 326 326 326 325 325 325
326 327 329 328 328 329 327 327 329 328 326 326 327 329 330 329 330 334 334 334 335 333 332 333 330 328 328 330 332 334 336 336 335 337 337 338 337 338 338 338 338 337 336 334 331 330 330 328 325 322 324 326 326 327 326 323 320 320 320 321 321 321 321 321 322 322 322 323 324 325 325 323 322 321 321 321 321 321 322 324 324 325 325 325 325 324 325
324 326 328 327 327 328 325 326 329 328 326 327 328 329 331 330 332 337 334 329 331 334 336 334 332 332 333 334 336 336 335 335 335 337 337 337 337 337 338 338 338 337 336 333 330 330 329 327 324 323 326 327 326 325 324 322 320 320 321 322 323 322 322 323 323 324 324 325 326 326 326 324 321 320 319 319 319 320 321 322 323 324 324 324 324 325 325
323 326 328 327 327 325 323 326 331 331 329 329 328 329 332 333 333 333 330 327 332 340 340 338 338 338 337 337 337 336 334 334 334 335 336 336 336 337 338 337 337 336 335 332 330 329 328 325 324 324 326 327 325 324 323 321 321 321 322 323 323 323 324 324 325 326 326 327 327 327 326 324 321 319 318 318 320 321 321 322 323 323 323 324 324 324 325
323 327 328 327 324 322 324 330 333 331 329 329 328 329 333 335 333 331 330 332 338 341 338 338 339 338 337 336 334 332 332 331 332 334 334 335 335 337 337 336 335 335 334 331 330 329 327 325 325 325 326 327 325 323 323 322 322 322 323 323 324 325 325 326 326 326 327 327 327 327 325 322 320 319 319 319 320 321 321 322 323 323 324 324 324 325 324
326 327 327 324 322 324 330 333 330 328 328 330 331 333 335 334 333 335 334 333 337 339 336 334 334 333 332 331 330 331 331 330 331 332 333 334 335 335 336 335 334 333 332 331 330 328 327 326 326 327 327 326 325 324 323 323 323 323 323 323 324 326 327 328 327 327 327 327 327 326 323 321 320 319 319 319 320 320 321 323 323 323 323 324 324 324 324
327 327 325 323 325 330 335 333 328 327 328 330 329 329 333 335 334 334 334 334 336 337 334 332 332 330 330 331 331 331 331 330 331 332 332 334 334 335 335 333 332 332 331 331 330 328 327 326 326 326 327 326 325 324 324 324 323 324 324 323 324 325 328 329 329 328 327 328 327 326 323 321 320 319 318 319 320 322 323 323 323 323 323 323 323 324 323
328 326 324 325 328 329 331 334 333 331 331 334 331 327 332 341 338 333 335 338 338 337 334 333 332 330 332 335 334 331 331 331 332 331 332 333 335 334 334 332 331 331 331 330 329 328 327 326 326 326 326 327 325 324 324 325 324 324 324 324 324 325 327 329 330 329 328 327 325 323 322 320 320 320 319 319 320 322 323 322 321 321 320 320 322 322 322
328 327 324 325 325 324 330 338 337 331 328 334 335 328 330 341 339 331 333 339 339 338 336 333 333 333 335 337 336 333 332 331 332 331 332 333 334 334 332 331 331 331 330 331 329 328 327 327 326 327 327 327 326 325 325 325 325 324 324 325 324 325 326 329 330 330 329 325 322 321 320 320 320 320 320 319 319 321 321 320 319 319 319 319 320 321 321
327 326 324 325 326 326 335 341 335 327 324 329 332 326 326 337 337 329 331 337 338 339 336 334 335 336 334 334 335 333 332 332 333 332 331 332 332 332 332 332 331 331 330 330 329 328 328 327 327 327 328 328 327 325 325 326 325 325 325 325 325 325 326 326 327 328 327 324 321 320 320 320 320 320 320 320 319 320 320 320 319 319 319 320 320 321 322
326 326 324 326 326 329 338 339 329 323 325 328 328 322 324 334 334 327 329 335 336 336 335 334 337 338 335 335 335 333 332 333 333 332 332 332 332 332 332 331 330 330 331 330 329 328 328 328 328 327 328 328 327 325 325 326 326 325 325 325 325 325 324 324 323 324 325 324 321 321 322 322 321 321 321 320 319 320 320 319 320 320 319 320 320 320 321
326 325 324 324 326 331 335 332 325 323 326 327 324 322 327 331 328 326 329 331 331 332 333 334 338 337 335 333 333 332 333 334 333 333 332 332 332 332 331 331 330 330 330 329 329 329 328 329 328 328 328 329 327 326 326 326 327 326 325 326 325 324 323 323 323 324 324 323 322 323 324 323 322 321 321 320 319 319 319 320 320 320 320 320 320 320 321
325 326 325 323 325 329 329 326 324 324 325 326 326 327 329 328 327 328 329 329 330 331 330 333 335 333 331 331 332 333 333 333 333 333 333 332 332 331 331 331 330 329 329 330 329 329 329 329 328 328 328 328 328 326 326 327 327 327 327 326 325 324 324 324 323 323 324 323 322 324 325 324 321 321 321 320 320 320 320 320 320 320 320 321 321 320 320
325 325 324 321 323 326 325 325 327 326 326 328 328 328 328 326 327 329 328 329 331 331 330 331 332 330 330 331 332 332 332 332 333 332 332 332 331 330 330 330 330 330 330 330 330 330 330 330 329 329 328 328 328 328 326 327 328 328 328 327 325 325 325 324 323 323 324 324 323 325 326 324 321 321 321 320 320 320 320 320 320 320 321 321 321 321 321
323 322 324 325 327 327 325 326 329 328 328 328 326 326 329 328 326 328 328 329 331 330 331 332 331 330 330 330 331 331 331 331 331 331 331 330 330 330 330 330 330 330 329 330 330 330 330 330 330 330 329 328 328 327 327 328 328 328 329 327 326 325 325 324 323 323 324 324 325 326 326 323 321 321 321 320 320 320 320 320 321 321 321 321 321 322 321
325 325 327 329 329 327 324 325 327 327 326 326 325 325 328 328 327 327 328 330 331 331 331 332 331 330 330 330 330 330 330 330 330 330 330 330 330 330 329 330 330 330 330 330 330 330 330 330 330 330 329 328 328 327 328 328 329 328 328 326 326 326 325 324 323 324 325 324 324 326 326 323 321 321 321 321 321 320 321 321 321 321 321 321 321 321 322
328 326 327 328 327 326 325 325 325 325 325 326 325 325 326 327 328 329 329 330 332 331 331 332 332 331 330 330 330 329 329 330 329 329 329 328 328 328 328 329 328 329 329 329 329 329 330 330 331 331 330 328 327 328 328 328 328 328 327 326 326 326 325 324 323 323 324 323 323 325 325 322 321 321 321 321 320 321 321 321 321 321 321 321 321 321 322
326 326 329 329 327 326 326 325 325 326 326 326 326 326 327 327 329 330 330 331 332 332 331 332 332 331 330 330 330 329 329 328 328 327 327 326 326 326 326 326 326 327 327 327 328 328 329 328 330 331 330 328 328 328 328 327 327 326 326 326 326 326 325 325 324 324 324 323 323 325 324 322 321 321 321 321 321 321 321 321 321 321 321 321 321 321 321
326 328 331 327 324 324 325 324 325 327 327 327 327 327 328 329 330 330 331 332 332 332 331 331 331 331 329 329 329 328 327 326 326 325 324 324 324 324 324 324 324 325 325 325 325 326 327 328 329 330 329 328 328 327 326 325 325 325 326 326 326 325 325 324 324 323 323 322 324 325 323 321 321 321 321 321 321 321 321 321 321 321 321 321 321 322 322
326 328 328 324 323 326 326 325 326 328 327 327 327 327 329 329 329 330 330 331 331 331 330 330 330 330 329 328 327 326 324 324 324 324 323 323 323 323 323 323 323 323 324 325 325 325 326 327 328 328 328 327 327 326 324 323 324 325 326 326 326 325 325 324 324 323 322 323 325 324 322 320 320 321 321 321 321 321 321 321 321 321 322 322 322 322 322
325 326 325 322 322 325 324 323 324 326 327 327 326 327 328 328 327 327 328 328 330 330 329 329 329 329 328 326 325 324 324 324 324 323 323 322 322 322 322 322 322 324 324 325 325 325 325 326 327 327 327 326 325 324 323 323 324 325 325 325 325 324 324 323 323 322 322 324 325 322 320 321 321 321 321 321 321 321 321 321 321 322 322 321 321 322 322
323 323 322 321 322 323 323 322 323 324 326 326 326 326 327 327 327 327 327 327 328 328 327 327 326 326 326 325 324 324 324 323 322 322 321 320 320 320 321 322 323 324 324 324 324 324 324 325 325 325 324 324 323 322 323 324 325 325 325 325 324 323 323 322 322 321 322 323 323 322 321 321 321 321 321 321 321 321 321 321 322 322 322 321 321 322 321
321 321 318 318 319 320 319 319 321 322 324 326 326 325 326 326 326 327 326 326 327 326 325 325 325 325 324 324 323 323 322 321 321 320 319 320 321 321 322 323 324 324 324 324 323 323 323 324 324 323 323 322 322 323 324 325 325 325 325 324 323 323 323 322 322 321 322 322 323 322 322 322 321 321 321 321 321 321 322 322 322 322 321 321 321 321 321
319 318 316 314 315 314 313 315 321 324 324 324 325 325 326 326 325 326 325 326 325 325 324 325 324 324 323 323 321 321 320 320 320 320 321 322 322 323 323 323 323 323 323 323 323 322 322 322 322 322 322 322 322 323 325 326 325 325 324 324 323 323 322 321 321 321 321 323 323 323 322 322 321 321 322 322 321 321 322 322 322 322 321 321 321 321 321
314 314 313 313 313 313 312 314 320 323 323 323 324 324 325 325 325 325 324 324 324 324 324 323 323 322 322 321 321 320 321 321 321 321 322 322 322 322 323 322 322 323 322 322 322 322 322 322 322 322 322 322 322 323 324 324 324 323 323 323 322 322 322 321 321 321 321 322 323 324 324 322 321 321 321 321 321 321 322 322 322 321 321 321 320 320 320
313 314 315 315 316 316 315 315 317 317 318 320 322 323 324 324 324 324 324 324 323 323 323 322 322 322 322 322 321 321 321 322 322 322 322 322 323 322 322 322 322 322 322 322 322 322 322 322 322 322 322 322 322 322 322 322 322 322 322 321 321 322 322 322 321 321 322 322 323 324 324 323 321 321 321 320 321 322 322 322 321 321 320 320 320 319 319
314 315 316 317 318 318 316 316 316 315 315 316 319 321 322 324 324 324 323 323 323 323 322 322 323 323 323 322 322 322 322 323 323 323 323 323 322 322 322 322 322 322 322 321 321 321 322 322 322 322 322 322 321 321 321 321 321 321 321 321 321 321 321 321 321 322 322 321 321 322 322 322 321 321 320 321 321 321 321 321 320 320 319 318 318 317 318
315 315 315 316 316 316 316 316 316 316 316 317 317 319 321 323 323 323 323 323 322 323 323 323 323 323 323 322 322 323 322 323 323 323 322 322 322 323 322 322 322 322 322 322 322 322 322 322 322 321 321 321 321 321 321 321 321 321 321 320 319 318 318 318 319 320 320 320 321 322 322 321 321 321 321 321 321 320 320 319 318 317 316 316 316 316 317
315 315 314 315 315 315 316 316 316 316 317 317 318 319 320 321 322 323 323 322 323 323 323 323 323 323 322 322 323 323 323 323 323 323 323 323 323 322 322 322 322 322 322 322 322 322 322 322 321 321 321 321 321 322 322 322 322 321 320 319 318 319 319 318 318 320 321 321 321 321 321 321 321 322 322 321 320 319 319 318 316 314 314 314 313 313 314
316 316 315 315 316 316 316 316 316 317 317 317 318 319 319 320 322 323 322 323 323 323 323 324 323 323 323 323 323 323 323 323 323 323 323 323 322 322 322 322 322 322 322 322 322 322 322 321 321 321 321 321 322 322 322 322 322 321 320 319 319 320 321 321 321 321 322 322 321 321 321 321 321 321 321 320 320 319 318 316 316 314 313 311 310 310 311
316 316 317 317 316 316 316 316 317 317 317 317 318 319 319 320 321 321 322 322 322 323 324 324 323 323 323 323 323 323 323 323 323 322 322 321 321 321 321 322 322 322 323 323 322 322 321 321 321 322 322 321 322 322 322 322 321 321 321 321 321 321 321 322 322 322 321 322 322 322 322 321 321 320 320 319 319 318 317 316 316 314 312 309 307 308 309
318 319 318 318 318 318 318 318 317 316 317 317 318 318 319 319 320 321 322 322 323 324 324 324 323 324 323 323 323 323 322 321 320 319 319 319 320 321 322 322 322 323 322 322 322 322 321 321 322 321 321 321 321 321 321 321 321 321 321 321 321 321 322 322 322 322 322 322 321 320 320 320 319 319 319 319 318 317 316 315 314 312 309 307 306 307 308
319 319 319 318 318 319 319 319 317 316 317 317 318 318 319 319 321 322 323 324 324 324 324 324 324 323 323 322 321 320 318 318 317 317 319 320 321 321 322 321 321 321 321 321 321 321 321 321 320 320 320 320 319 319 319 320 320 320 320 320 321 321 322 322 322 321 321 321 320 319 319 319 319 319 318 317 316 314 313 311 310 308 307 306 306 306 308
319 319 319 319 319 319 319 319 319 317 317 317 317 318 318 319 321 322 324 324 324 324 323 323 322 321 320 319 318 317 317 317 318 318 320 321 321 321 321 320 320 321 321 320 320 320 319 319 319 318 318 317 316 317 318 319 319 320 320 320 321 321 321 320 320 319 319 319 319 319 318 318 316 315 313 312 311 310 310 309 307 307 306 305 305 306 307
318 319 319 319 319 319 319 319 319 317 316 317 317 318 318 320 322 323 324 324 323 322 322 321 320 319 318 317 317 317 317 318 319 320 320 320 320 320 320 320 320 321 320 319 318 318 318 318 318 316 315 315 317 318 318 319 320 320 320 320 320 320 320 319 318 318 319 319 319 317 315 312 310 308 307 307 307 307 308 307 306 306 305 305 305 305 305
317 318 319 319 319 319 319 319 318 317 317 317 317 318 319 321 322 323 323 322 322 321 320 319 318 318 317 317 317 317 317 318 319 320 320 319 319 319 319 319 320 319 318 318 318 317 317 317 316 315 315 317 318 318 318 318 319 320 320 319 320 319 318 318 318 318 317 316 314 311 308 307 306 305 304 304 305 306 306 305 306 306 306 305 304 303 303
318 319 320 319 319 319 319 318 317 317 317 317 318 319 321 322 323 322 321 320 319 319 318 318 318 318 318 317 317 317 317 318 319 319 319 319 318 318 318 319 319 317 316 316 315 315 314 314 314 314 317 318 319 318 318 318 318 318 318 318 318 317 316 316 315 314 312 310 309 307 306 306 304 303 303 304 304 304 304 304 304 305 305 304 303 302 302
319 319 319 320 320 318 318 318 318 318 319 319 320 320 321 322 321 320 319 319 318 319 319 319 318 318 317 317 317 317 317 318 318 318 318 318 317 318 318 318 316 314 313 311 310 311 311 312 314 315 317 318 317 317 317 316 316 316 315 315 314 314 312 312 311 310 309 308 307 306 305 304 302 302 302 303 303 303 302 302 302 302 302 302 302 302 301
319 319 319 319 319 319 318 318 318 319 319 320 321 321 320 320 320 320 319 319 318 318 318 318 318 317 317 316 316 316 317 317 317 317 317 317 317 318 317 315 313 312 311 310 310 310 311 313 314 315 316 315 315 314 314 313 313 312 312 311 311 310 310 309 309 308 308 307 306 305 303 302 300 299 300 301 301 301 301 301 301 301 301 301 300 300 300
318 319 319 319 319 319 319 319 319 319 320 320 320 320 320 319 319 319 319 318 317 317 317 317 317 317 316 316 316 316 316 317 317 317 317 317 317 316 314 312 312 312 311 310 310 310 310 311 312 313 313 312 312 311 311 311 310 310 310 309 309 309 308 308 308 307 306 305 304 302 301 300 299 298 298 299 300 300 300 300 299 299 299 298 298 298 298
318 319 318 319 318 318 318 318 318 319 319 319 319 319 319 319 319 318 318 318 317 317 318 317 317 316 316 316 316 316 317 317 317 317 317 316 316 314 313 313 313 312 310 309 308 308 308 309 309 310 310 310 310 310 309 309 308 308 307 306 306 306 306 306 305 305 304 303 301 300 299 298 298 297 296 296 298 299 299 298 297 297 296 296 296 296 296
319 319 318 319 318 318 318 318 318 319 319 319 318 318 318 317 316 316 317 317 317 317 317 317 316 316 316 316 316 316 317 317 316 316 316 315 314 313 313 313 313 311 309 308 308 307 307 306 306 306 307 307 307 306 306 305 305 304 303 302 303 303 303 303 303 302 301 300 299 299 298 297 297 297 296 296 297 297 298 297 296 296 296 296 296 296 296
319 319 319 318 318 318 318 318 318 318 318 318 317 317 316 316 316 316 316 316 316 317 317 317 317 316 316 316 316 316 316 316 316 316 315 313 312 312 312 312 311 309 307 306 305 305 305 305 304 304 304 303 303 302 302 302 301 300 300 300 300 301 301 302 301 301 300 299 299 298 297 297 296 296 297 296 296 296 296 296 296 296 296 296 296 296 295
318 319 319 318 318 318 317 318 318 318 317 317 317 317 317 317 317 317 317 317 317 317 317 317 316 316 316 316 316 316 316 316 316 315 315 314 314 313 312 310 308 306 305 304 304 303 304 303 303 303 302 302 302 301 301 300 299 299 299 299 300 301 301 300 300 299 299 299 298 298 297 297 297 297 296 296 296 296 296 296 296 296 296 296 295 295 295
318 318 318 318 318 317 317 318 319 319 317 317 317 318 317 317 317 317 317 317 317 317 317 317 316 316 316 316 315 315 316 315 315 314 314 314 313 312 309 307 306 305 305 304 304 303 303 303 303 302 302 302 301 301 300 299 298 298 298 298 299 300 300 300 299 298 298 298 298 297 297 297 296 296 296 295 295 295 295 295 295 296 295 295 294 294 294
319 318 317 318 318 318 318 318 319 318 318 318 317 317 317 317 317 316 317 316 316 316 317 317 317 317 317 316 315 315 315 315 314 313 312 312 311 310 308 306 306 306 305 305 304 304 304 303 303 303 302 302 301 300 300 299 298 298 298 297 298 299 299 299 298 298 298 298 297 297 296 296 296 295 295 295 295 295 295 295 295 295 294 294 294 294 293
318 318 318 318 318 318 318 318 318 318 318 317 317 317 317 317 316 316 316 316 316 316 317 317 317 317 316 316 315 315 315 315 314 313 312 311 310 309 308 306 305 305 305 305 304 304 304 304 303 303 302 301 300 300 299 298 298 298 298 297 297 298 298 298 297 297 297 296 296 296 295 295 295 295 295 295 295 295 295 294 294 294 294 293 293 293 293
317 318 318 318 318 318 319 318 318 318 318 317 317 317 316 316 316 316 316 316 316 316 317 317 317 317 316 316 316 316 315 315 314 313 312 311 310 309 308 307 305 305 305 304 304 304 304 303 303 303 302 301 300 299 298 298 298 298 297 297 297 297 297 297 296 296 296 295 295 295 295 294 294 294 294 294 294 293 293 293 293 293 292 292 292 292 292
317 318 318 318 318 319 319 318 318 317 317 316 316 316 316 315 315 315 315 315 316 316 317 317 317 317 316 316 316 316 316 315 314 312 311 311 310 309 308 307 306 305 305 304 304 304 303 303 302 302 301 300 299 298 298 297 297 297 297 297 297 296 296 296 296 296 295 295 294 294 294 294 294 294 293 293 293 293 292 292 292 291 291 291 292 292 292
316 316 316 317 317 317 317 317 317 317 316 316 315 315 315 315 315 315 315 315 316 316 316 316 317 317 316 316 316 315 315 315 314 312 311 310 310 310 309 307 306 305 305 304 304 304 304 303 302 301 300 299 299 298 297 297 297 297 297 297 297 296 296 296 296 295 295 294 294 294 294 294 294 293 293 293 293 293 292 292 292 291 291 292 292 292 292
315 315 315 314 314 314 314 314 314 315 315 315 316 316 315 315 315 315 315 315 316 316 316 316 316 316 315 315 315 315 315 315 314 312 311 310 310 309 308 307 306 305 305 304 304 304 303 303 302 300 299 299 298 298 297 297 297 297 297 297 297 296 296 295 295 295 295 294 294 294 294 294 293 293 293 293 293 293 293 293 293 292 292 292 292 292 291
Wind_Speed
2 2 1 0 0 2 3 7 10 8 8 9 8 5 4 6 5 5 1 6 7 7 5 7 7 4 5 8 11 14 17 20 22 23 24 27 28 29 30 33 34 32 31 29 26 23 20 17 15 12 11 12 11 8 8 9 11 11 11 12 12 11 11 11 10 10 11 12 12 13 14 15 15 16 16 17 18 19 20 19 18 17 17 17 18 19 19
4 2 0 0 2 4 4 4 6 6 7 7 5 3 4 6 6 4 0 5 9 8 6 10 11 9 9 12 13 14 15 18 21 23 25 26 29 31 33 34 34 32 31 29 26 22 20 17 15 13 13 13 11 8 9 10 10 11 11 12 11 11 11 10 9 10 11 11 12 13 15 16 16 16 17 17 18 19 20 20 19 19 18 18 18 19 20
3 2 2 3 3 4 5 4 3 3 4 4 3 2 3 4 5 4 3 5 9 7 7 11 16 14 12 12 12 11 13 16 20 22 23 26 29 32 34 34 33 32 31 29 26 23 20 18 16 15 15 13 10 9 10 10 10 10 11 11 10 11 11 10 9 10 10 11 12 14 15 16 16 17 17 18 19 19 20 20 21 20 19 18 18 18 19
2 2 3 4 4 4 3 3 5 6 6 4 3 2 3 5 4 3 4 5 7 3 3 7 11 9 9 11 10 10 12 16 20 22 23 27 31 33 34 34 33 33 32 29 26 23 20 18 17 16 15 12 10 9 9 9 9 10 10 10 10 11 11 10 10 10 11 11 13 14 15 16 16 17 19 19 18 18 19 20 21 20 19 18 17 17 17
3 2 2 4 4 3 3 4 6 9 7 4 3 2 4 6 5 4 5 5 5 2 0 4 5 5 6 9 8 9 12 17 21 23 26 28 31 32 33 33 33 33 32 29 25 21 19 19 18 15 13 11 9 8 9 10 10 10 10 9 10 10 11 11 11 11 11 12 13 14 15 16 17 18 20 19 17 17 18 20 21 20 18 17 17 17 17
3 2 2 3 4 6 3 1 1 4 6 9 7 5 6 7 6 3 4 5 4 4 5 6 6 5 6 8 8 9 13 18 20 22 26 27 29 31 32 32 32 32 30 27 22 20 19 19 17 15 14 12 10 9 10 10 10 10 9 9 10 10 11 12 12 13 13 13 14 15 15 16 17 19 20 18 17 18 19 19 19 19 18 17 17 18 18
2 3 3 4 6 4 1 2 0 1 2 5 5 3 4 7 7 6 6 8 8 8 8 7 8 9 10 11 12 12 13 16 18 20 23 25 27 30 31 31 31 30 27 24 21 20 20 20 18 17 15 14 12 12 11 10 10 10 10 10 10 11 12 12 13 14 14 14 14 14 14 15 17 19 18 17 17 18 18 17 17 18 18 17 18 18 19
2 4 5 4 2 1 1 1 2 3 4 4 1 4 6 7 8 8 8 10 10 7 7 7 7 7 7 9 11 11 9 11 15 17 19 21 25 29 30 29 27 25 23 21 20 20 20 20 19 18 17 15 14 14 12 9 10 11 11 11 11 12 13 13 13 13 13 14 14 14 14 15 16 17 17 17 16 16 16 16 16 17 18 18 18 19 19
1 3 4 2 2 1 3 2 3 3 3 3 3 5 5 5 6 8 8 9 7 4 4 4 4 2 2 4 7 7 6 7 10 13 15 18 23 27 26 23 21 20 19 19 19 20 20 20 20 19 17 16 16 16 13 10 10 11 12 12 12 13 14 14 14 13 13 14 14 13 14 14 15 16 17 17 16 16 16 16 17 18 19 19 19 19 20
1 2 2 2 3 3 4 4 3 2 2 3 4 3 4 3 7 11 10 7 5 3 3 4 5 3 2 2 2 4 5 5 8 11 13 17 23 25 22 20 19 19 19 18 18 19 19 20 21 20 18 17 17 17 14 11 11 12 13 13 12 13 14 14 14 13 13 14 13 13 13 13 14 15 16 17 17 16 17 18 19 19 19 19 18 18 19
3 3 3 4 5 3 3 5 1 2 4 7 6 3 6 3 8 14 13 7 6 6 6 7 7 4 3 3 1 3 4 4 7 11 14 18 22 20 18 17 18 17 17 17 17 18 20 22 22 21 20 19 20 20 16 12 12 14 13 12 12 12 13 14 14 14 14 13 13 12 12 13 13 15 16 17 17 17 17 18 18 18 18 18 18 17 18
4 4 4 3 3 2 3 4 1 4 8 9 4 5 6 3 9 16 16 12 11 10 10 10 7 4 4 2 2 3 5 6 7 11 14 18 19 18 16 16 16 16 15 16 18 19 21 24 24 22 21 21 22 22 18 14 14 15 13 11 10 12 14 16 16 15 15 14 13 12 13 13 13 14 14 16 17 16 16 16 17 17 18 19 19 18 17
4 5 4 2 2 3 3 3 2 8 9 6 5 6 3 4 11 15 17 17 15 14 16 14 7 4 3 3 3 5 8 10 11 13 15 17 17 15 15 15 15 16 17 18 19 20 22 24 24 24 23 22 23 23 19 17 16 14 12 10 11 14 16 17 16 16 15 15 14 13 13 13 13 12 13 14 15 15 15 16 16 18 19 19 20 19 18
2 3 3 1 2 2 1 3 7 9 6 4 5 4 2 6 13 15 16 18 15 15 20 18 10 7 7 7 7 10 12 13 14 15 15 16 16 15 15 15 15 17 19 20 21 21 23 24 25 26 25 23 23 23 21 20 17 14 12 12 13 15 17 17 16 16 16 16 15 15 14 13 13 12 11 12 13 14 15 16 17 18 20 19 19 19 18
2 1 2 2 2 0 4 7 7 4 4 3 2 3 5 9 14 15 17 18 16 16 20 19 14 12 11 10 11 13 14 13 13 14 14 14 14 15 15 16 17 18 20 21 21 22 24 24 25 27 26 23 23 24 23 21 17 14 13 14 15 17 19 18 17 16 16 16 17 17 15 13 12 12 11 11 12 13 14 15 17 18 18 18 18 19 18
2 2 3 2 1 2 5 6 3 6 11 7 6 8 8 10 14 17 18 19 18 17 19 20 19 16 14 13 13 13 13 12 12 13 13 13 13 14 15 16 18 19 20 22 22 24 24 24 25 27 25 23 23 24 24 21 18 16 16 16 18 19 20 19 18 18 17 17 17 18 16 12 11 12 12 11 11 11 12 14 15 16 17 17 18 18 18
2 2 2 2 3 5 7 10 13 17 20 18 15 15 14 15 16 17 19 20 18 18 19 21 22 19 16 14 12 11 11 11 11 12 12 12 13 13 14 16 17 19 21 23 24 25 25 25 26 26 23 21 22 23 23 21 19 18 18 19 20 21 20 19 19 18 18 17 17 18 17 13 12 13 13 12 11 11 12 13 15 16 17 17 18 18 18
2 4 5 5 7 10 11 12 15 20 24 24 22 20 20 20 19 18 18 18 15 17 19 20 20 19 16 13 10 10 10 10 10 10 10 10 11 12 13 15 17 19 21 23 24 25 25 26 27 25 21 20 21 21 20 20 19 18 19 21 22 22 21 19 17 16 17 17 17 17 16 14 13 14 14 13 12 11 12 14 15 16 17 18 18 18 18
1 2 2 2 9 13 14 14 13 15 18 19 18 18 19 19 17 13 12 12 12 15 17 17 17 17 14 12 11 11 10 10 9 9 9 9 10 12 14 16 18 20 21 22 23 24 24 25 25 22 19 19 20 19 18 19 19 20 22 22 21 21 20 19 16 15 16 17 17 17 16 14 13 14 14 14 12 12 13 14 15 16 17 18 19 18 18
2 2 2 11 18 16 12 13 13 11 11 11 11 11 11 10 9 8 9 9 12 15 14 13 16 16 13 11 12 11 10 9 9 9 9 9 10 12 13 15 17 18 20 21 21 22 22 22 20 18 18 19 19 18 18 19 20 21 23 22 20 20 19 17 16 15 15 16 16 17 16 13 12 12 13 13 13 13 14 15 15 15 16 17 18 18 17
3 1 4 15 18 9 7 13 14 8 5 5 5 5 7 9 9 9 9 9 11 13 12 12 14 15 13 12 11 10 9 9 8 8 8 8 9 10 11 13 15 16 18 19 20 20 20 18 16 15 16 17 18 18 19 20 20 21 21 20 19 19 17 16 16 15 14 13 13 14 14 12 10 10 13 15 15 15 16 16 15 15 16 17 17 16 15
1 1 6 11 9 5 11 19 18 8 4 3 3 4 7 9 8 7 8 10 10 11 12 12 13 14 13 12 10 9 8 8 7 7 6 6 7 9 11 12 14 15 16 16 16 16 16 15 13 13 15 17 18 19 20 19 19 20 20 20 19 18 17 16 16 14 12 10 11 13 13 12 10 11 15 16 15 15 16 15 14 14 15 16 16 16 15
3 4 7 9 5 8 15 22 19 11 7 5 6 6 7 9 7 7 9 11 13 14 13 12 12 12 11 10 10 9 8 6 5 4 5 6 8 10 13 14 15 15 15 14 13 13 12 12 12 13 15 17 18 19 18 18 18 19 20 19 18 18 18 17 15 15 13 11 12 13 14 14 13 13 15 16 14 14 15 15 14 14 15 15 15 15 15
5 5 10 13 12 13 20 26 21 13 11 9 8 8 9 10 9 9 10 12 13 14 14 12 12 11 10 9 9 7 6 4 4 5 7 9 10 12 14 15 15 14 13 12 11 11 11 11 12 13 15 16 16 17 17 17 18 19 19 18 18 18 18 17 17 16 15 14 15 15 14 14 14 14 15 15 13 12 13 14 14 13 13 13 14 14 15
7 11 17 21 21 21 25 28 21 12 11 11 9 8 8 9 9 9 10 11 12 12 12 13 13 12 11 9 8 6 5 5 6 8 9 10 11 12 13 14 14 13 12 11 11 11 12 12 13 14 14 15 15 15 15 16 17 17 17 18 18 18 19 20 20 19 16 15 16 16 15 15 13 12 12 12 11 12 12 12 13 13 12 12 12 13 14
18 20 23 24 24 24 24 21 17 14 12 11 11 10 8 8 9 10 11 12 13 13 12 13 13 12 11 10 8 7 7 8 8 9 10 11 11 12 13 14 13 13 11 11 11 11 12 13 14 14 13 13 13 13 13 13 13 14 14 15 17 19 20 21 22 20 17 15 15 16 17 16 14 13 12 11 12 13 11 9 9 10 10 11 11 12 12
20 19 18 17 18 19 19 17 16 18 18 16 15 13 11 11 11 13 14 15 15 15 14 13 13 12 11 10 8 8 9 9 9 10 11 11 12 13 13 13 13 12 11 11 12 12 12 13 13 12 11 11 10 9 10 10 11 12 12 13 14 16 18 19 21 20 17 14 14 16 17 15 13 14 14 12 12 13 10 7 6 6 8 10 10 9 10
17 15 14 13 14 18 20 19 19 21 21 20 19 17 16 17 17 18 19 20 19 17 16 16 14 13 11 10 10 10 10 10 10 11 12 13 14 14 14 14 14 13 13 13 14 15 14 13 12 11 10 9 8 8 8 9 9 10 10 11 13 14 16 17 19 18 16 13 12 13 15 14 13 14 13 11 10 11 8 6 5 4 5 6 7 7 8
18 18 17 17 19 21 24 24 23 22 22 21 21 20 20 22 23 22 23 23 21 19 18 18 16 14 12 11 11 10 10 10 12 13 14 14 15 14 14 15 15 15 15 16 16 15 14 13 11 10 9 8 8 7 7 7 8 9 11 11 12 12 13 14 14 13 12 11 10 9 9 10 12 13 11 10 9 8 6 4 3 1 2 3 5 6 7
20 22 23 24 24 25 26 28 28 26 24 23 21 21 21 23 26 27 26 24 22 21 20 19 17 15 14 12 11 11 11 12 14 15 15 14 14 15 15 15 16 16 15 15 14 13 13 12 11 9 8 7 7 7 7 9 11 12 12 10 9 10 11 11 9 7 7 8 9 8 8 10 11 11 10 9 8 6 4 4 3 1 3 3 4 5 5
23 25 26 26 26 26 27 27 28 27 25 23 22 22 22 24 28 29 27 26 25 24 22 21 18 16 13 12 12 12 13 14 14 14 14 14 15 16 16 15 15 14 13 12 11 11 10 9 7 6 6 7 8 9 10 11 12 11 11 9 9 9 9 8 6 4 5 7 9 10 10 10 10 10 9 8 6 5 4 3 1 3 5 5 5 5 4
24 24 25 26 26 26 26 25 25 25 24 22 23 24 23 24 28 31 31 31 29 26 24 21 18 15 13 13 13 14 14 14 13 14 15 16 16 16 14 13 11 9 8 8 7 6 6 5 5 6 7 9 11 11 11 11 10 10 10 10 9 8 7 5 3 3 6 8 10 11 11 11 10 8 6 5 5 4 3 3 5 7 8 8 7 5 4
20 19 21 24 24 24 25 27 27 26 24 24 24 25 25 25 28 32 34 32 29 26 22 19 16 14 13 13 13 13 12 13 13 14 15 15 13 11 9 7 5 4 4 4 4 4 4 5 7 8 10 11 11 11 11 11 11 11 10 8 6 5 4 3 3 5 7 8 9 9 9 8 6 4 2 3 3 2 3 5 7 7 8 8 7 5 5
21 21 23 26 27 26 28 30 30 27 25 25 25 25 26 25 27 31 31 29 27 23 19 16 14 13 12 11 11 10 11 11 12 12 12 10 8 6 4 3 2 1 2 3 3 4 5 6 7 8 8 9 9 9 10 10 10 9 7 4 3 3 2 2 3 4 4 5 5 5 5 4 3 2 2 1 1 1 2 4 5 5 5 6 6 5 5
25 27 28 28 29 29 29 30 31 28 26 26 26 26 27 26 25 26 27 25 23 19 16 15 14 12 10 9 9 8 8 9 10 10 8 7 5 4 3 2 1 1 1 2 3 4 4 4 4 4 4 5 5 5 4 4 4 4 2 1 1 0 1 1 1 2 2 3 3 3 3 3 2 1 0 2 2 1 1 2 3 2 3 3 3 3 3
26 28 29 29 29 29 28 28 28 27 27 27 27 26 26 24 23 23 23 21 18 15 14 14 13 10 8 8 7 7 7 7 8 7 7 6 5 4 3 2 1 0 1 2 2 2 2 2 2 3 4 3 2 2 2 1 2 2 4 5 4 4 4 5 6 5 5 4 3 2 2 2 2 3 3 4 4 3 1 1 0 0 1 2 2 2 2
27 29 31 31 29 27 24 24 24 24 24 24 24 24 23 20 19 20 20 18 15 14 14 12 10 8 8 7 6 5 6 7 7 7 6 5 3 2 2 2 1 1 1 2 2 3 3 3 3 4 5 4 4 5 5 5 4 5 5 5 5 5 6 6 6 5 4 3 1 1 2 3 5 5 5 4 3 2 1 1 1 0 1 1 2 2 2
28 29 30 29 26 23 21 20 20 21 20 20 20 19 16 17 21 21 17 15 15 14 13 11 8 7 6 5 4 5 6 7 6 6 5 4 2 3 3 2 1 0 1 1 1 2 2 3 4 6 7 6 7 7 8 8 8 8 7 6 5 5 5 5 4 2 1 0 1 3 4 5 6 6 4 2 1 2 2 2 1 1 3 3 3 3 4
26 27 26 24 21 18 16 13 13 13 15 16 15 15 20 23 22 19 15 14 13 11 9 7 6 6 5 4 4 6 7 7 6 5 5 5 5 4 3 2 2 3 3 4 4 5 5 6 7 8 8 8 7 8 8 9 8 7 6 4 3 2 2 2 1 0 1 2 3 4 4 4 4 3 1 2 3 3 3 4 4 4 5 5 4 4 4
20 21 20 19 16 13 10 9 9 9 10 12 15 23 27 25 21 18 16 14 11 8 5 3 4 4 4 4 5 6 6 6 6 5 6 6 6 5 5 5 6 6 7 8 7 6 6 7 7 6 6 6 6 6 6 5 4 3 2 1 1 2 2 2 2 3 3 4 4 4 3 2 1 1 2 3 4 4 4 5 6 6 6 6 5 4 3
14 13 14 14 12 8 8 10 12 14 16 14 12 14 18 18 17 16 14 12 9 6 5 5 6 5 4 5 6 6 7 8 9 8 8 7 7 8 8 8 8 8 8 8 8 7 6 5 4 3 3 3 3 3 2 1 0 1 2 2 2 3 3 4 4 4 4 4 3 3 1 1 2 3 3 4 5 6 6 6 6 7 7 6 5 4 3
9 8 7 7 5 4 8 11 12 14 17 15 11 9 10 10 9 9 9 8 7 6 7 8 7 6 6 6 6 6 9 11 11 10 9 8 7 8 8 8 8 7 7 7 7 6 5 3 2 1 1 1 1 1 2 3 3 4 4 4 4 4 4 4 3 3 2 2 1 1 2 3 4 5 6 7 7 7 7 7 7 7 7 6 5 5 4
9 6 3 4 6 9 12 13 14 16 20 19 16 11 9 7 7 5 4 4 5 6 7 8 8 8 7 7 7 9 11 13 13 12 11 9 8 7 7 7 7 7 6 6 5 3 3 2 1 1 1 2 2 3 4 5 5 6 5 5 4 4 3 2 2 1 1 2 3 4 5 6 7 7 8 8 9 8 7 7 7 6 6 5 4 4 3
8 5 6 9 11 12 12 14 16 18 18 16 11 8 6 5 4 4 5 4 5 7 7 7 7 8 8 7 8 11 13 14 14 13 12 11 10 9 8 7 6 6 5 4 4 3 3 3 3 3 3 3 3 4 5 5 5 5 4 4 3 3 2 1 1 2 3 4 5 6 6 6 7 7 7 7 7 7 6 6 5 4 4 4 3 3 3
5 2 6 8 9 9 10 12 13 12 9 7 5 6 7 6 5 6 6 5 5 7 7 7 7 8 9 9 10 11 13 14 13 11 10 9 10 9 8 7 7 6 5 5 5 5 6 5 5 6 6 6 6 8 8 8 6 4 3 2 2 2 2 2 2 3 5 6 7 6 6 5 5 5 5 5 5 4 4 4 3 3 3 3 3 3 3
2 3 4 4 4 6 7 7 5 4 4 5 6 8 8 7 6 6 7 6 6 7 7 7 7 9 10 11 13 14 14 13 12 10 8 8 8 8 8 9 8 8 7 6 5 5 6 6 6 7 8 8 8 9 10 10 7 4 1 2 3 3 3 4 4 5 7 7 6 5 4 3 3 3 2 2 2 2 2 2 3 3 4 3 3 3 3
5 4 3 2 2 4 5 4 3 3 5 6 7 8 8 8 8 8 8 8 7 8 7 7 9 11 11 11 13 15 16 14 13 11 10 9 9 8 8 9 9 8 8 7 6 5 6 6 7 8 9 8 8 8 10 9 6 3 2 2 3 4 5 5 6 7 7 7 5 4 3 2 2 2 1 1 2 2 2 3 4 4 4 4 4 4 3
4 2 2 3 5 5 4 4 4 4 5 5 5 6 7 8 8 8 9 9 9 9 9 9 11 12 12 12 12 13 13 12 12 11 10 10 9 8 8 8 8 7 6 6 5 4 5 6 7 7 7 7 7 7 8 7 5 2 2 3 3 5 6 6 6 7 7 6 5 4 3 3 2 2 2 3 3 4 4 5 5 5 5 5 5 5 5
6 5 5 5 5 4 4 4 4 4 4 4 4 5 6 7 7 8 9 9 9 9 9 10 11 13 13 13 13 12 11 11 10 8 7 8 9 9 8 7 7 6 5 5 3 2 0 2 4 5 5 5 6 7 8 6 3 1 2 3 3 5 6 6 6 6 5 4 4 4 4 4 3 3 3 4 4 4 4 5 6 6 6 6 6 6 6
7 6 5 5 5 5 5 4 4 3 3 4 4 4 5 5 6 6 7 8 9 9 9 10 11 13 14 15 14 13 12 12 11 8 6 6 8 9 8 7 6 5 5 5 6 6 5 4 4 3 4 5 6 7 6 5 3 1 1 1 2 3 4 5 5 4 4 3 3 4 4 4 3 3 3 3 3 3 3 4 5 5 5 6 6 6 6
7 7 6 6 6 5 5 4 4 3 3 3 3 3 4 4 4 5 5 6 7 8 8 10 12 14 16 16 16 15 14 14 13 10 7 5 7 8 8 7 6 6 6 6 7 8 8 7 6 4 4 5 6 6 5 4 3 2 3 3 2 2 2 3 4 4 3 3 3 4 3 3 2 2 2 2 2 3 3 4 4 3 4 5 7 7 6
8 8 7 6 6 5 4 3 1 1 2 3 3 2 2 3 3 3 4 5 6 7 8 9 12 14 16 17 17 16 14 14 14 12 8 6 6 8 8 7 7 7 7 8 8 8 9 9 8 5 4 5 6 6 5 4 3 3 4 5 4 4 3 4 4 5 4 3 2 2 2 2 1 2 2 2 3 3 4 4 4 4 5 6 6 6 6
Wind_Direction
109 65 100 238 139 123 135 155 163 165 167 180 194 194 150 155 209 271 141 153 221 253 265 274 272 251 244 252 249 242 233 223 215 210 207 206 206 205 203 201 199 201 204 205 208 213 217 217 216 218 229 233 238 256 283 290 284 281 285 287 291 291 290 293 291 284 281 283 287 294 300 305 307 305 306 312 317 320 322 321 318 313 311 312 315 316 316
103 89 69 167 121 115 114 138 157 164 171 186 202 188 164 190 242 292 127 203 242 252 255 267 274 274 268 268 265 251 231 217 210 206 203 202 202 202 202 201 200 203 207 207 209 215 217 216 215 222 230 231 238 262 284 286 280 276 280 286 289 290 292 295 288 279 279 284 289 297 304 308 308 306 307 312 316 319 321 322 320 315 309 308 312 315 317
101 64 60 76 89 110 125 134 144 148 149 168 200 204 171 200 261 280 243 250 263 249 232 255 271 278 273 262 251 235 219 211 206 202 199 199 202 204 203 200 201 205 207 207 211 215 216 214 215 224 229 230 241 265 280 281 272 269 275 283 288 289 292 291 282 278 280 284 291 300 306 309 308 307 309 312 315 317 318 319 319 317 311 308 311 314 316
146 55 65 94 87 92 130 183 200 181 166 174 197 189 176 193 223 235 231 261 275 256 207 249 265 266 256 248 235 219 213 211 206 201 200 201 204 205 203 200 202 206 206 207 211 214 214 213 216 222 225 228 245 266 276 270 259 262 272 280 285 287 288 286 282 281 283 287 293 300 305 307 306 309 312 314 314 314 315 317 317 317 313 310 312 315 317
148 93 104 121 121 154 195 227 210 189 182 182 161 163 206 209 205 214 237 260 279 298 235 258 262 248 246 251 239 219 217 215 212 210 209 208 208 206 202 199 202 206 206 208 212 214 213 214 216 220 222 229 247 261 263 256 251 260 270 274 280 285 285 284 283 284 285 288 295 300 305 307 308 314 317 316 315 314 314 315 315 316 315 313 313 314 316
151 125 118 133 190 214 196 87 193 182 183 186 181 187 207 204 200 223 267 279 273 257 241 248 264 270 268 266 259 249 236 224 218 216 214 213 210 206 201 200 204 206 206 209 214 216 215 216 217 218 222 230 242 248 250 251 252 259 265 269 277 283 284 283 283 284 284 287 294 301 306 309 313 319 321 318 315 314 314 314 314 316 316 314 313 314 317
125 123 146 188 215 222 96 59 76 74 119 165 185 234 234 218 219 230 256 263 256 251 245 245 259 272 278 277 275 275 258 234 224 219 215 213 211 206 201 201 205 206 206 211 216 216 216 217 216 218 223 229 236 239 243 248 252 256 263 269 276 282 283 284 284 283 282 284 290 298 306 310 316 323 325 322 318 316 315 315 316 316 317 315 313 314 318
126 151 182 206 239 306 316 240 156 109 81 103 166 272 257 233 223 215 232 250 253 253 252 246 250 265 285 288 280 277 263 234 223 220 216 211 207 202 200 202 205 206 208 213 217 218 219 219 218 221 226 230 233 235 238 246 253 257 262 269 276 282 283 285 286 285 281 282 286 294 303 309 317 326 331 329 324 319 318 319 317 316 316 315 314 314 318
167 175 190 225 321 291 216 196 161 169 172 150 184 259 260 227 205 193 211 245 251 244 245 230 213 214 279 290 274 262 248 221 213 218 218 211 201 197 199 204 205 207 212 216 219 222 223 223 224 226 229 230 232 233 235 244 253 255 259 267 275 280 283 285 288 287 282 281 285 292 299 306 318 327 330 330 326 321 320 322 321 319 317 315 314 315 317
155 176 189 227 253 235 214 220 206 189 202 145 148 237 258 231 209 203 211 239 238 200 199 188 162 147 187 242 243 223 219 206 198 207 212 205 197 195 200 204 205 210 215 218 222 225 227 229 230 230 230 230 231 235 237 243 251 253 257 265 273 281 286 286 282 278 275 277 283 290 296 304 316 323 325 326 323 320 321 323 324 323 320 318 317 318 318
159 193 212 215 226 231 223 231 211 115 159 139 125 243 263 238 213 211 212 223 215 195 186 172 161 170 209 200 173 202 205 188 185 194 198 194 192 194 201 206 209 214 218 222 226 228 232 237 235 232 231 230 230 237 241 243 249 253 256 267 279 284 285 280 271 265 265 268 276 286 293 302 311 316 319 320 319 318 319 321 323 324 323 321 320 321 322
163 191 210 218 236 253 242 262 357 127 159 149 147 259 268 222 210 209 204 208 212 198 179 168 174 213 217 167 153 189 169 154 166 179 184 187 189 195 202 206 211 217 219 224 229 234 243 247 242 235 233 230 232 239 243 246 250 255 260 272 282 280 278 276 272 267 263 262 269 281 291 299 307 311 313 314 315 315 316 317 319 320 321 320 319 320 324
164 195 219 247 253 243 263 300 104 140 153 166 215 248 267 196 205 203 199 209 215 197 182 179 185 202 174 136 152 166 153 152 162 167 175 186 193 200 206 208 213 217 221 226 235 244 252 253 249 243 238 233 236 241 244 247 253 258 263 272 276 275 277 281 281 275 268 263 267 276 285 294 302 305 306 308 310 310 310 311 312 315 319 320 320 321 324
146 190 224 262 265 263 353 89 120 141 165 210 224 245 280 215 206 201 201 211 215 200 191 189 177 152 141 136 146 155 156 161 166 169 178 189 196 204 209 212 218 224 229 234 242 250 255 254 253 251 245 239 240 243 245 250 257 260 261 266 270 273 280 286 286 280 273 267 267 273 280 288 296 298 299 305 308 305 304 306 308 313 317 319 322 324 326
121 148 198 237 278 323 126 126 120 149 211 252 326 315 270 228 212 209 211 215 214 204 196 189 170 146 139 142 149 156 163 169 174 181 189 197 205 211 214 220 229 234 237 242 247 252 255 257 257 257 253 247 244 245 247 252 258 258 256 260 266 272 281 286 284 281 276 269 267 270 274 281 290 290 292 300 304 302 303 306 311 316 317 318 323 327 327
181 177 178 180 97 102 158 176 206 223 219 237 314 320 282 247 226 218 219 221 217 206 196 185 169 152 145 148 152 160 170 177 185 195 203 210 216 221 226 233 239 242 244 248 251 253 256 260 261 262 259 252 247 247 249 253 256 255 254 256 261 270 278 282 281 281 278 273 270 266 264 272 285 285 286 293 297 298 304 310 314 318 319 319 323 327 328
215 231 252 282 305 298 269 256 258 253 247 254 277 293 288 270 249 232 226 225 216 204 196 185 172 164 161 160 160 167 177 185 195 203 209 216 222 228 235 241 245 249 252 254 256 258 262 264 267 268 263 253 250 251 251 252 255 256 254 253 258 266 274 279 283 284 280 276 272 261 255 264 274 274 278 285 288 293 304 310 314 318 320 320 322 327 330
281 274 268 276 289 295 294 282 266 263 265 267 272 278 276 268 260 247 234 227 212 197 193 187 178 177 180 177 174 176 182 189 196 202 209 218 227 235 242 247 252 256 260 262 264 266 268 269 273 274 265 255 256 256 251 251 256 257 253 250 255 264 271 277 285 284 278 277 272 259 252 259 264 265 272 278 281 289 299 307 313 316 319 320 323 328 331
309 269 211 312 312 303 301 301 289 275 273 271 268 268 265 260 257 244 225 215 200 187 186 188 186 181 179 179 179 180 184 188 192 202 214 223 232 240 245 251 256 260 265 269 270 271 272 274 276 274 265 257 256 252 248 252 257 255 249 247 255 265 271 275 282 281 278 279 272 258 249 251 258 266 271 273 275 286 295 302 308 313 316 318 322 326 331
281 249 23 345 329 310 293 300 303 290 280 273 261 255 249 237 217 194 183 184 183 179 179 186 189 184 178 180 183 181 183 187 194 208 219 227 237 245 250 256 261 265 268 270 270 271 273 274 274 269 260 254 249 245 247 255 258 252 245 247 259 268 268 270 275 278 281 281 269 253 244 249 262 269 269 267 272 283 292 298 304 309 313 315 318 323 329
272 223 11 353 344 330 312 322 321 302 271 273 259 227 198 178 167 164 166 168 175 180 180 182 187 189 187 184 183 182 186 195 206 216 227 239 249 258 266 271 274 275 273 270 269 269 270 271 269 262 252 246 243 245 254 259 256 249 247 254 263 264 262 265 271 275 282 280 261 241 237 249 263 263 259 262 271 282 291 296 301 306 308 310 314 320 325
278 62 17 0 348 297 304 323 325 307 249 232 225 199 178 173 172 174 178 176 176 182 187 186 187 189 187 183 184 191 199 209 219 229 243 262 275 284 289 289 285 281 275 271 269 269 270 269 262 251 243 241 246 254 259 258 253 249 252 259 262 259 257 261 265 271 276 268 246 233 237 250 260 256 255 259 267 279 289 294 298 303 304 305 311 318 321
287 332 355 353 324 276 301 321 323 305 272 229 204 203 198 194 201 213 207 195 183 179 182 183 182 183 185 186 191 200 206 213 226 246 268 283 289 291 290 288 284 281 278 277 276 275 274 267 255 247 245 249 256 260 259 255 252 253 258 262 260 257 256 258 263 269 270 257 243 240 247 255 254 249 252 259 266 277 288 293 295 298 301 304 311 317 318
273 314 342 341 328 312 319 327 325 302 273 250 225 219 212 204 206 213 213 206 194 183 176 175 179 184 189 191 193 196 200 213 241 261 271 276 280 282 282 282 283 285 288 290 288 284 279 271 264 261 262 266 269 266 260 256 256 258 263 264 261 259 260 263 268 271 271 263 254 248 248 251 251 249 251 258 267 276 285 291 293 295 299 305 313 317 318
305 318 326 325 320 314 317 323 326 310 278 265 258 246 226 210 205 204 203 203 199 191 186 187 190 191 191 190 190 194 205 227 246 257 266 273 277 279 279 280 284 289 293 295 293 291 287 283 280 279 279 278 276 269 263 261 262 265 269 271 270 270 270 269 269 272 275 272 262 253 246 244 248 250 248 253 268 276 276 279 284 289 296 305 312 316 317
314 318 321 318 313 309 310 319 328 325 309 296 287 270 240 220 216 211 205 203 202 200 200 201 198 194 192 193 198 209 224 240 251 260 270 274 276 276 275 275 279 284 288 292 294 294 292 290 288 287 285 281 277 272 268 267 267 271 274 275 276 275 272 268 268 271 274 272 264 257 249 242 243 246 245 251 268 272 264 261 272 282 292 302 307 312 314
306 314 319 315 308 308 313 318 316 311 309 307 297 274 240 228 234 227 213 209 210 208 205 203 200 197 196 200 209 222 235 246 254 262 267 267 268 268 268 269 272 275 281 290 293 291 289 286 284 284 284 282 279 274 271 270 269 271 275 277 278 278 275 273 272 272 272 273 270 263 258 256 257 256 251 248 250 247 240 240 251 263 280 294 303 310 314
297 305 306 298 295 302 309 310 306 300 297 296 296 282 252 238 238 232 221 217 216 213 206 202 201 200 202 210 220 229 238 247 253 257 258 259 259 261 263 265 267 269 275 281 283 283 284 284 284 286 287 285 282 277 274 274 273 275 281 284 284 284 283 283 281 275 271 275 281 275 269 267 260 249 241 236 232 227 227 238 245 249 273 295 311 320 317
293 298 296 294 296 301 303 303 302 300 294 289 293 290 270 249 240 233 227 223 221 217 210 205 203 204 209 217 225 232 240 247 250 251 251 253 255 257 261 264 266 269 275 279 280 282 284 284 287 289 286 281 281 279 278 277 277 283 291 294 294 295 296 295 293 286 274 273 280 277 260 245 236 230 225 224 226 227 228 231 226 237 300 307 319 321 310
294 298 298 298 298 299 299 298 300 301 298 293 291 291 280 262 248 239 233 228 224 219 214 210 208 208 211 218 226 235 242 245 245 246 248 251 255 260 265 269 273 277 281 283 284 284 283 283 285 284 280 278 280 279 278 280 283 286 289 291 297 307 310 307 306 302 281 266 259 241 219 213 216 215 210 209 216 225 221 200 178 45 350 329 319 314 302
295 298 298 297 297 296 296 296 297 298 297 295 292 289 280 264 251 243 238 233 227 221 215 212 211 210 213 222 229 234 237 239 241 246 251 256 263 267 271 275 279 281 282 282 280 278 277 278 279 276 275 279 282 283 285 287 287 283 279 281 292 303 307 307 304 285 253 236 225 213 205 203 202 201 203 209 216 220 213 203 237 343 343 339 331 320 309
299 300 301 302 302 299 295 295 296 294 292 291 291 290 282 267 255 248 241 234 226 219 214 212 211 211 215 222 226 228 232 238 245 252 259 264 267 270 273 276 277 278 278 278 277 276 276 278 279 280 283 286 287 288 287 285 284 282 282 287 297 301 303 304 282 229 213 212 209 203 197 194 191 192 204 216 213 211 227 283 315 328 337 339 336 336 340
298 295 297 302 302 296 291 291 292 291 289 287 287 290 289 277 261 252 244 233 221 213 209 209 209 209 212 216 222 229 236 244 251 256 259 262 264 266 267 266 264 268 277 283 289 292 292 289 288 288 289 290 289 286 282 279 281 285 288 290 291 291 294 291 250 222 214 216 212 199 188 187 185 181 190 200 204 230 282 309 318 327 338 344 348 2 16
296 292 293 296 295 290 285 284 283 283 284 282 281 286 288 278 261 249 239 225 210 203 202 202 202 205 211 219 227 234 239 244 247 249 251 254 255 250 241 231 230 257 284 292 295 296 295 295 293 293 294 296 294 289 283 277 273 273 278 282 277 275 285 280 258 241 224 212 201 180 165 164 152 133 149 205 257 294 307 319 326 333 343 352 6 26 41
300 299 298 297 296 292 286 279 276 275 277 278 278 281 283 275 258 241 226 212 201 195 194 197 201 207 215 221 224 226 232 236 240 241 241 238 230 218 207 199 198 248 298 297 296 294 295 298 305 308 312 313 307 298 290 273 254 252 274 21 36 358 57 93 115 128 129 135 136 126 119 115 104 93 310 290 296 295 304 320 325 336 356 8 24 53 72
306 306 305 303 300 294 285 276 270 269 272 274 275 276 275 266 247 225 208 197 191 190 194 198 203 205 204 205 209 215 225 232 236 235 228 220 213 207 193 176 177 277 327 318 311 308 303 304 323 341 346 349 1 20 37 62 97 93 78 77 84 94 106 111 114 117 122 123 117 104 85 51 10 343 319 303 289 271 248 240 268 6 42 48 67 93 93
309 308 307 305 301 292 279 268 263 264 268 270 271 272 268 249 219 198 189 186 188 194 196 194 191 187 186 191 199 208 219 227 229 224 217 215 214 197 172 167 185 303 335 325 319 323 319 317 342 5 13 26 48 57 56 62 77 86 86 83 84 96 112 117 114 113 119 118 96 32 3 349 334 320 307 295 281 253 193 185 231 245 87 84 91 95 89
309 307 305 305 300 285 268 260 259 261 265 269 270 265 244 207 186 181 184 187 189 187 180 170 167 171 177 185 198 210 218 224 227 221 213 200 173 159 162 168 169 39 10 359 8 23 26 30 36 39 44 53 61 63 65 68 73 79 84 85 84 90 101 106 104 107 124 116 347 341 338 332 320 307 294 269 176 127 128 141 160 121 105 99 96 94 90
310 308 308 309 302 282 262 257 260 264 269 269 252 217 189 179 176 176 176 174 170 162 148 142 156 171 178 191 210 217 218 220 220 214 195 168 154 160 170 158 120 101 94 91 89 83 74 62 52 52 59 65 64 64 68 71 70 70 72 72 66 59 60 64 56 317 310 324 329 331 330 322 304 284 225 138 123 116 117 118 113 107 107 110 111 108 99
314 315 317 317 307 284 252 231 227 222 221 221 204 186 177 174 170 165 160 155 148 137 124 149 185 194 200 212 218 220 214 202 189 170 154 147 152 165 163 137 118 111 107 102 97 90 81 71 60 56 62 67 67 69 74 76 71 59 35 7 341 325 320 312 307 311 320 326 327 328 328 319 266 214 160 129 122 120 118 115 116 117 118 121 124 123 118
319 322 325 320 303 268 212 192 191 187 183 180 173 166 166 166 163 162 164 159 151 151 177 202 209 213 213 211 211 209 193 176 158 144 142 149 159 163 152 132 119 114 110 104 100 95 89 84 73 58 56 63 72 80 87 91 46 308 304 301 298 296 297 299 303 306 307 308 312 311 300 182 148 147 144 134 125 121 119 121 125 128 129 131 133 135 138
336 328 327 319 293 223 178 167 163 163 162 155 138 132 146 150 143 144 149 146 144 166 193 202 207 212 210 205 203 192 175 163 151 147 152 159 161 160 150 133 120 115 110 104 99 95 89 89 97 96 45 347 314 305 300 298 300 304 305 302 296 292 290 287 286 286 282 272 246 178 149 135 127 128 129 125 120 119 123 127 128 128 129 127 124 122 125
3 11 56 96 122 142 148 145 137 133 132 130 128 134 142 126 103 105 137 151 167 193 205 211 214 213 205 197 191 179 168 159 154 155 158 155 152 154 152 135 117 109 100 89 80 73 64 52 19 324 309 306 304 304 305 305 305 303 300 298 292 284 278 270 260 237 193 167 155 143 133 126 123 123 121 118 117 118 122 124 125 125 125 122 118 115 115
351 22 86 104 109 116 124 127 127 127 125 122 128 151 164 144 138 185 218 224 216 210 208 212 214 207 194 186 183 177 168 161 160 163 163 157 151 151 146 126 106 95 87 75 65 61 57 50 44 39 28 15 4 351 339 330 319 304 290 280 271 259 247 233 202 165 153 148 143 137 130 122 117 116 115 114 113 114 115 120 125 129 131 131 130 128 128
323 49 108 109 103 103 110 117 120 120 113 108 130 178 194 191 191 205 212 215 212 206 202 203 205 197 181 169 168 170 166 161 160 164 167 163 159 154 142 121 104 94 88 86 84 80 73 67 59 50 35 20 11 3 357 351 342 324 290 238 217 210 200 185 167 152 149 150 146 139 130 120 113 113 114 114 114 116 124 131 138 142 147 153 155 153 153
241 143 129 117 108 115 127 135 133 116 104 120 152 179 189 189 189 190 188 186 192 195 193 189 187 182 173 164 162 162 161 157 156 161 165 165 162 154 137 121 109 97 89 86 86 82 72 62 50 36 22 12 6 1 358 355 350 343 330 181 187 190 180 168 159 151 149 152 152 146 138 130 126 126 128 127 133 145 156 160 162 166 171 176 177 173 172
181 187 204 207 147 139 153 174 177 144 137 151 171 184 186 182 181 182 181 182 186 190 187 177 171 173 175 173 169 166 163 161 163 166 165 159 158 155 142 127 116 104 92 86 83 74 59 45 32 21 11 3 358 355 355 356 356 6 48 121 166 175 168 161 157 153 152 156 160 162 166 174 182 188 190 184 176 179 185 187 185 184 183 185 186 183 180
131 137 124 119 121 126 137 146 140 133 140 155 170 182 185 184 183 186 189 190 189 188 183 175 171 172 174 173 172 174 176 174 172 173 172 167 164 164 159 149 138 127 117 109 98 75 49 31 17 5 357 352 351 352 354 356 1 24 61 90 133 154 160 162 160 156 156 160 169 180 194 207 215 215 219 217 206 201 202 199 194 192 195 198 197 191 182
91 92 96 104 112 118 126 129 131 137 147 155 165 182 194 194 190 192 197 198 194 188 186 183 178 175 174 172 174 180 187 185 182 184 191 188 181 178 177 177 173 167 161 161 165 170 109 1 347 338 336 341 345 347 350 353 359 47 83 89 114 140 157 168 171 165 162 167 176 184 191 199 203 207 210 211 210 210 208 202 201 203 203 197 191 186 181
86 88 94 102 109 117 123 124 121 124 139 155 165 176 188 194 195 197 202 203 197 191 190 190 186 181 179 179 180 182 187 191 196 204 214 207 197 194 196 202 207 208 208 211 220 231 242 258 276 296 320 335 338 340 344 344 333 259 175 140 125 138 160 176 180 175 167 162 161 164 169 173 174 175 179 184 192 196 193 194 203 208 198 185 185 190 191
82 81 83 87 93 99 104 108 111 119 142 166 173 174 180 189 194 196 204 209 206 198 194 195 193 188 185 186 189 189 190 196 204 215 225 223 211 208 213 222 233 243 251 251 247 250 261 270 273 278 304 322 324 327 333 335 314 258 227 216 209 201 197 197 198 196 186 164 149 148 153 154 151 150 151 163 179 188 186 186 196 203 194 190 196 203 202
76 75 72 70 67 63 58 60 91 159 177 183 184 188 196 199 201 207 218 221 217 208 202 200 199 195 192 193 197 198 198 202 212 225 237 239 227 223 230 242 253 263 270 270 264 260 264 267 267 269 287 303 305 307 312 316 302 264 244 237 235 233 230 220 211 208 207 196 174 173 180 181 173 174 180 183 189 195 196 196 199 204 205 204 206 207 205